User: anonymous   Login
Location: Bílinka
(49.3579°N, 14.3767°E)
Time: 04:59:34
(UTC+00:00)
Language:

Cosmos 1892 - Orbit

View from above orbital plane
View from above orbital plane
View from above satellite
View from above satellite

Ground track
Ground track

The orbit data is extracted from the following two-line orbital elements,

1 18421U 87088A   23157.38161352  .00008252  00000-0  33252-3 0  9999
2 18421  82.4973 277.6309 0011801 246.7029 113.2967 15.24629348949090
Epoch (UTC): 06 June 2023 09:09:31
Eccentricity: 0.0011801
inclination: 82.4973°
perigee height: 484 km
apogee height: 500 km
right ascension of ascending node: 277.6309°
argument of perigee: 246.7029°
revolutions per day: 15.24629348
mean anomaly at epoch: 113.2967°
orbit number at epoch: 94909

The dashed part of the orbit path shows where the satellite is in the earth's shadow,  

DLR